Temperature
5 5 5 5 5 5 5 5 5 5 6 6 6 5 5 5 5 5 5 5 5 5 4 4 4 4 4 4 4 4 3 3 3 3 3 3 3 3 3 3 3 2 2
5 5 5 5 5 5 5 5 5 5 5 5 5 5 5 5 5 4 4 4 4 4 4 4 4 4 4 3 3 3 3 3 3 3 3 3 2 2 2 2 2 2 2
4 4 4 4 5 5 5 5 5 5 5 5 4 4 4 4 4 4 4 4 4 4 4 3 3 3 3 3 3 3 3 2 2 2 2 2 2 2 1 1 1 1 1
4 4 4 4 4 4 4 4 4 4 4 4 4 4 4 4 4 4 4 4 3 3 3 3 3 3 3 3 3 2 2 2 2 2 2 1 1 1 1 1 1 1 1
3 3 4 4 4 4 4 4 4 4 4 4 4 4 3 3 3 3 3 3 3 3 3 3 3 3 2 2 2 2 2 2 1 1 1 1 1 1 0 0 0 0 0
3 3 3 3 3 3 3 3 3 3 3 3 3 3 3 3 3 3 3 3 2 2 3 2 2 2 2 2 2 2 2 1 1 1 1 1 0 0 0 -0 -0 -0 -1
2 2 2 3 3 3 3 3 3 3 3 3 3 2 3 3 3 2 2 2 2 2 2 2 2 2 2 2 1 1 1 1 1 0 0 0 0 -0 -0 -0 -1 -1 -1
2 2 2 2 2 2 2 2 2 2 2 2 2 2 2 2 2 2 2 2 2 2 2 2 2 2 1 1 1 1 1 1 0 0 -0 -0 -0 -1 -1 -1 -1 -1 -1
1 2 2 2 2 2 1 1 2 2 2 1 1 1 1 1 1 1 1 1 1 1 1 1 1 1 1 1 0 0 0 0 -0 -0 -0 -0 -1 -1 -1 -1 -2 -2 -2
1 1 1 1 1 1 1 1 1 1 1 1 1 1 1 1 1 1 1 1 1 1 1 1 0 0 0 0 0 -0 -0 -0 -0 -1 -1 -1 -1 -1 -1 -2 -2 -2 -2
0 0 1 1 1 0 0 0 0 0 0 0 0 0 0 0 0 0 0 0 0 0 0 0 0 -0 -0 -0 -0 -1 -1 -1 -1 -1 -1 -1 -2 -2 -2 -2 -2 -2 -3
-0 -0 -0 -0 -0 -0 -0 -0 -0 -0 -0 -0 -0 -0 -0 -0 -0 -0 -0 -0 -0 -0 -0 -0 -0 -0 -1 -1 -1 -1 -1 -1 -2 -2 -2 -2 -2 -2 -2 -2 -3 -3 -3
-0 -1 -1 -1 -1 -1 -1 -1 -1 -1 -1 -1 -1 -1 -1 -1 -1 -1 -1 -1 -1 -1 -1 -1 -1 -1 -1 -1 -1 -1 -2 -2 -2 -2 -3 -3 -3 -3 -3 -3 -3 -3 -3
-1 -1 -1 -1 -1 -1 -1 -1 -1 -1 -1 -1 -1 -2 -2 -1 -1 -1 -2 -2 -2 -2 -2 -2 -2 -2 -2 -2 -2 -2 -2 -3 -3 -3 -3 -3 -3 -3 -3 -3 -3 -3 -3
-2 -2 -2 -2 -2 -2 -2 -2 -2 -2 -2 -2 -2 -2 -2 -2 -2 -2 -2 -2 -2 -2 -2 -2 -2 -2 -2 -2 -2 -3 -3 -3 -3 -3 -4 -4 -4 -4 -4 -4 -4 -4 -4
-2 -2 -2 -2 -2 -2 -2 -2 -2 -2 -2 -2 -2 -2 -2 -2 -2 -2 -2 -2 -2 -2 -3 -3 -3 -3 -3 -3 -3 -3 -3 -4 -4 -4 -4 -4 -4 -4 -4 -4 -5 -5 -5
-3 -3 -3 -3 -3 -3 -3 -3 -3 -3 -3 -3 -3 -3 -3 -3 -3 -3 -3 -3 -3 -3 -3 -3 -3 -3 -3 -3 -3 -4 -4 -4 -4 -4 -4 -5 -5 -5 -5 -5 -5 -5 -5
-3 -3 -3 -3 -3 -3 -3 -3 -3 -3 -3 -3 -3 -3 -3 -3 -3 -3 -3 -3 -3 -3 -3 -3 -3 -3 -4 -4 -4 -4 -4 -4 -4 -5 -5 -5 -5 -5 -5 -5 -5 -5 -5
-4 -4 -4 -4 -4 -4 -4 -4 -4 -4 -4 -4 -4 -4 -4 -3 -3 -4 -4 -4 -4 -4 -4 -4 -4 -4 -4 -4 -4 -4 -4 -5 -5 -5 -5 -5 -5 -5 -5 -6 -6 -6 -6
-4 -4 -4 -4 -4 -4 -4 -4 -4 -4 -4 -4 -4 -4 -4 -4 -4 -4 -4 -4 -4 -4 -4 -4 -4 -5 -5 -5 -5 -5 -5 -5 -5 -5 -5 -5 -5 -6 -6 -6 -6 -6 -6
-5 -5 -5 -5 -5 -5 -5 -5 -5 -5 -5 -5 -5 -5 -5 -5 -5 -5 -5 -5 -5 -5 -5 -5 -5 -5 -5 -5 -5 -5 -5 -5 -5 -5 -5 -6 -6 -6 -6 -6 -6 -6 -6
-6 -6 -5 -5 -5 -5 -5 -5 -5 -5 -5 -5 -5 -5 -5 -5 -5 -5 -5 -5 -5 -5 -5 -5 -5 -5 -5 -5 -5 -5 -5 -5 -5 -6 -6 -6 -6 -6 -6 -6 -6 -6 -6
-6 -6 -6 -6 -6 -6 -6 -6 -6 -6 -6 -6 -6 -6 -6 -6 -6 -6 -6 -5 -5 -5 -5 -5 -5 -5 -5 -5 -6 -6 -6 -6 -6 -6 -6 -6 -6 -6 -6 -7 -7 -7 -7
-7 -7 -7 -7 -7 -6 -6 -6 -6 -6 -6 -6 -6 -6 -6 -6 -6 -6 -6 -6 -6 -6 -6 -6 -6 -6 -6 -6 -6 -6 -6 -6 -6 -6 -6 -6 -6 -7 -7 -7 -7 -7 -7
-7 -7 -7 -7 -7 -7 -7 -7 -7 -7 -7 -7 -7 -7 -6 -6 -6 -6 -6 -6 -6 -6 -6 -6 -6 -6 -6 -6 -6 -6 -6 -6 -6 -6 -6 -7 -7 -7 -7 -7 -7 -7 -7
-8 -8 -8 -8 -8 -8 -7 -7 -7 -7 -7 -7 -7 -7 -7 -7 -7 -7 -7 -7 -6 -6 -6 -6 -6 -6 -6 -6 -6 -6 -6 -6 -6 -7 -7 -7 -7 -7 -7 -7 -7 -7 -7
Wind_Speed
7 7 7 6 6 6 6 6 6 5 5 6 6 6 6 6 6 6 6 6 6 6 5 6 6 5 4 4 4 4 4 5 5 4 3 3 4 5 4 5 6 7 7
6 7 7 6 6 6 6 5 5 5 5 5 6 6 6 6 6 6 6 6 6 6 6 6 6 5 6 5 4 5 5 5 5 5 4 4 5 5 5 5 6 6 8
4 5 6 6 6 6 6 5 5 5 5 5 5 6 6 6 6 6 6 6 6 6 6 6 6 6 6 5 5 5 5 5 5 5 4 4 4 4 4 5 5 6 7
4 4 5 5 5 6 5 5 5 5 5 5 5 5 6 6 6 6 6 6 6 6 5 5 6 6 7 6 5 6 5 5 4 4 4 4 3 4 4 4 5 5 6
3 4 4 4 4 4 5 5 5 5 4 4 4 4 5 5 5 6 6 6 6 5 5 5 5 5 5 5 5 5 5 5 4 4 4 4 4 3 4 4 5 5 6
2 3 3 4 4 4 4 4 4 4 4 4 4 4 4 3 5 6 6 5 5 5 5 4 4 5 5 5 5 5 5 6 5 5 5 5 6 5 4 4 5 6 6
1 2 2 3 4 4 4 4 4 4 4 4 3 3 3 3 5 6 5 4 5 5 5 4 3 3 4 4 3 4 4 5 6 6 6 6 6 6 5 6 6 7 7
1 1 2 3 3 4 4 4 4 4 4 4 3 3 3 3 4 5 5 4 4 4 4 4 4 4 4 4 3 3 4 4 5 5 5 6 5 5 6 6 7 6 6
0 1 1 2 3 4 4 4 4 4 3 3 3 3 3 3 4 5 4 3 3 3 3 3 4 4 5 5 4 4 4 3 3 4 5 5 6 7 6 4 4 5 6
0 0 1 2 3 3 3 3 3 3 3 3 3 2 2 2 3 5 5 3 3 2 2 3 4 5 5 5 5 5 5 4 3 3 3 3 4 5 6 5 5 5 5
1 1 1 1 2 2 3 3 3 3 3 3 3 2 2 2 3 4 5 3 3 3 2 2 2 4 4 5 5 5 5 4 3 3 3 3 3 3 4 4 4 5 5
1 2 2 2 2 2 3 2 3 3 3 3 2 2 1 2 2 3 4 3 3 3 3 3 2 3 3 3 3 3 3 3 2 2 3 3 3 3 4 4 5 6 6
2 2 2 3 3 2 2 3 2 3 2 2 2 2 1 1 2 3 3 3 3 3 2 2 2 2 2 2 2 2 2 2 2 3 3 4 3 4 4 4 4 4 5
3 2 2 3 3 2 1 1 1 2 2 2 2 2 1 1 2 2 2 2 2 2 2 2 2 1 1 1 1 1 2 2 3 3 3 3 3 3 3 3 4 4 4
3 2 2 2 2 1 1 1 0 1 2 2 2 2 2 3 3 3 3 2 2 2 2 2 2 2 1 1 1 1 2 2 2 2 3 3 3 3 3 3 3 4 4
2 2 2 1 1 1 1 1 2 1 1 2 2 3 3 3 3 4 4 4 4 4 3 3 3 2 2 2 2 2 2 3 3 3 3 3 3 3 3 3 3 4 5
2 2 1 1 1 1 0 0 1 1 1 1 2 2 2 2 3 3 3 4 4 4 3 2 3 3 3 3 3 3 3 3 3 3 3 3 3 3 3 4 4 4 5
2 2 1 1 1 1 1 1 1 1 2 2 2 2 2 2 2 2 3 3 3 2 2 3 3 3 3 3 3 3 3 3 3 3 3 3 3 3 4 4 4 5 5
2 2 2 1 1 1 1 1 1 2 2 2 2 2 1 1 1 1 2 2 2 2 2 3 3 3 3 3 3 3 3 4 4 3 3 4 4 4 4 4 5 6 6
2 3 2 2 1 1 1 1 2 2 2 2 2 2 2 1 1 1 1 2 2 3 3 3 3 3 3 3 3 3 3 4 4 4 4 4 4 4 5 5 5 5 5
3 2 2 2 2 2 2 2 2 2 2 3 3 3 3 2 2 2 2 2 3 3 3 3 3 3 3 3 3 4 4 4 4 4 4 4 4 4 5 5 5 5 5
3 2 2 2 2 2 2 2 2 3 3 3 3 3 3 2 2 3 3 3 3 3 3 3 3 3 3 3 3 4 4 4 4 4 4 4 4 4 5 5 5 5 5
3 3 2 3 2 3 3 2 3 3 3 3 3 2 2 2 2 3 3 3 2 3 3 3 3 3 3 4 5 5 5 5 4 4 4 4 4 5 5 5 6 6 6
3 3 3 3 3 3 3 3 3 3 3 3 3 3 3 3 3 3 3 2 2 3 3 3 3 4 5 5 5 6 6 6 6 6 6 5 5 5 5 5 6 6 6
4 4 3 3 3 3 3 3 3 3 3 3 3 3 3 3 3 3 3 2 3 3 3 4 4 5 5 6 6 6 7 8 7 6 6 5 5 6 6 6 6 6 6
4 4 4 4 4 4 4 4 4 4 4 3 3 3 3 3 3 3 3 3 3 3 4 4 5 5 6 6 7 8 8 8 8 8 6 5 5 5 5 5 6 6 6
Wind_Direction
186 185 184 185 186 186 187 188 187 186 184 186 188 189 190 191 191 193 193 191 198 201 204 209 214 213 213 213 216 222 231 239 246 260 262 263 252 253 257 265 272 270 268
188 184 183 182 181 182 183 182 181 182 182 184 186 188 192 193 192 192 193 194 200 204 208 212 216 211 216 217 219 227 232 238 244 252 261 268 259 253 258 266 272 274 273
181 178 180 182 181 184 183 180 182 182 180 181 186 190 194 195 194 196 195 196 204 208 208 213 217 213 217 220 224 230 232 236 241 244 254 267 265 256 264 272 273 274 278
179 174 178 183 184 185 183 181 182 181 180 181 187 192 193 194 196 196 196 197 202 208 210 214 222 222 223 221 223 227 228 232 237 241 247 260 265 266 263 270 278 279 279
180 176 182 184 180 178 176 176 177 178 180 182 183 187 188 191 195 195 196 198 201 204 207 213 218 217 222 224 223 226 226 228 233 240 244 258 261 259 261 269 273 282 282
181 182 177 174 174 175 173 170 169 172 176 175 181 183 187 190 187 195 198 197 200 203 206 208 208 204 207 215 223 231 235 230 227 241 251 248 259 265 269 267 270 279 282
176 180 170 170 169 170 167 168 172 172 168 167 171 177 186 182 176 188 194 197 198 201 202 203 204 204 207 212 215 227 244 250 245 247 251 256 263 262 261 263 263 267 278
162 170 172 175 174 168 167 170 171 171 170 168 170 179 183 182 181 179 183 198 198 202 205 206 209 210 208 210 219 235 248 255 256 254 256 263 268 266 262 264 264 276 285
127 183 190 183 177 172 173 175 173 168 167 165 166 172 178 182 183 181 183 193 196 207 211 212 215 218 206 212 221 231 244 259 265 261 265 270 274 270 266 264 260 266 277
316 273 189 182 176 173 175 174 170 165 161 155 157 172 180 183 181 184 191 192 196 203 212 216 216 221 218 223 229 230 238 253 260 267 270 274 269 261 258 252 248 253 270
350 28 103 140 150 156 158 162 161 156 151 150 152 167 178 184 182 189 197 201 200 203 215 227 222 210 230 237 243 243 247 262 263 261 270 277 277 267 261 261 256 250 258
49 68 87 99 107 125 137 143 149 150 149 152 154 156 167 182 192 197 203 211 214 214 225 231 226 219 236 247 249 245 256 270 261 261 269 275 275 276 277 278 275 271 269
69 74 83 87 90 107 127 136 139 150 158 164 171 181 187 194 203 206 213 218 225 237 243 238 235 235 236 238 230 249 259 256 253 256 261 270 274 279 285 290 293 291 287
74 71 77 85 82 82 91 124 149 167 171 177 187 199 206 222 228 212 215 217 219 232 238 220 207 215 238 241 240 249 257 258 258 258 263 274 283 284 283 289 291 295 292
60 55 58 66 76 70 54 27 255 237 224 215 215 217 217 228 238 237 228 226 228 224 212 208 208 212 222 231 248 264 265 258 262 265 268 277 281 284 287 288 286 287 284
40 31 30 36 32 26 44 33 24 339 322 287 260 249 249 247 238 236 239 240 229 208 213 211 220 225 229 237 244 254 259 259 262 264 264 264 267 272 282 286 283 278 279
17 1 353 359 339 316 294 287 343 10 7 323 290 274 265 246 228 230 231 217 201 196 216 221 230 231 236 243 247 252 258 264 262 255 255 258 261 267 274 278 278 278 280
347 342 325 306 295 287 279 275 271 285 300 308 307 287 270 244 222 211 200 183 197 212 229 229 235 237 239 240 244 249 254 255 255 256 257 258 258 261 266 271 272 277 280
333 321 312 304 298 293 290 287 277 271 278 291 304 299 292 274 216 195 190 209 214 229 240 241 242 242 243 244 244 245 246 247 248 251 254 256 256 257 261 265 270 278 279
328 333 327 308 297 289 282 272 270 271 276 280 284 293 294 282 254 244 236 238 238 242 247 249 250 251 249 248 248 245 246 246 245 247 251 253 253 254 259 264 267 272 277
322 320 325 305 286 275 268 266 265 261 262 268 276 282 270 254 249 250 248 246 245 248 252 252 251 251 250 247 246 243 243 247 247 247 249 251 253 258 262 264 267 271 276
319 310 305 297 289 277 272 270 268 264 264 269 279 279 268 265 257 254 253 255 256 257 255 250 250 252 250 245 242 242 243 246 247 247 250 255 257 260 262 264 266 271 273
317 309 301 297 290 283 278 273 270 269 270 271 274 275 268 264 263 260 261 264 265 264 260 252 255 259 251 247 244 243 243 245 246 244 249 255 258 260 261 263 265 270 271
319 311 302 296 292 285 279 276 272 269 269 272 273 269 266 264 263 264 267 273 274 273 264 257 257 258 257 253 251 249 248 249 250 245 244 250 257 261 263 264 266 268 270
320 314 306 296 289 285 283 280 276 275 272 270 269 269 268 264 263 265 269 270 270 270 272 266 258 255 252 253 256 255 255 257 259 257 246 243 252 256 258 262 264 267 269
315 312 307 302 295 290 286 284 282 283 279 276 272 270 269 265 261 261 263 264 267 270 273 267 260 259 260 257 255 256 260 262 262 261 254 248 252 255 257 258 261 262 267
Height
1457 1459 1462 1464 1466 1469 1471 1473 1475 1476 1478 1479 1481 1483 1484 1486 1488 1489 1491 1492 1494 1496 1497 1498 1499 1500 1501 1502 1503 1503 1504 1505 1504 1503 1503 1503 1503 1503 1502 1502 1502 1501 1501
1455 1457 1459 1461 1463 1465 1467 1469 1471 1473 1475 1476 1478 1479 1481 1482 1484 1486 1487 1489 1491 1492 1493 1494 1495 1496 1497 1498 1498 1499 1500 1500 1500 1499 1498 1498 1498 1498 1498 1498 1497 1497 1496
1452 1454 1456 1458 1459 1462 1464 1466 1468 1470 1471 1473 1474 1476 1477 1479 1480 1482 1484 1485 1487 1488 1489 1490 1491 1492 1492 1493 1493 1494 1495 1495 1496 1495 1494 1494 1494 1493 1493 1493 1493 1492 1491
1449 1451 1453 1455 1457 1459 1460 1462 1464 1466 1468 1469 1471 1472 1474 1475 1476 1478 1480 1481 1482 1484 1484 1485 1486 1487 1488 1488 1489 1490 1491 1491 1491 1491 1490 1490 1490 1489 1489 1489 1488 1487 1487
1447 1448 1450 1452 1454 1456 1457 1459 1461 1463 1464 1466 1467 1469 1470 1471 1473 1474 1476 1477 1478 1479 1480 1481 1482 1483 1483 1484 1485 1486 1486 1486 1486 1486 1486 1486 1485 1485 1485 1485 1484 1482 1481
1445 1446 1448 1449 1451 1452 1454 1456 1457 1459 1461 1462 1464 1465 1466 1467 1469 1471 1472 1473 1475 1476 1476 1477 1478 1479 1480 1481 1481 1482 1482 1482 1482 1482 1482 1482 1481 1481 1481 1481 1479 1478 1476
1443 1444 1445 1447 1448 1449 1451 1453 1454 1456 1458 1459 1460 1462 1463 1464 1466 1467 1468 1470 1471 1472 1473 1474 1475 1476 1477 1477 1477 1478 1478 1479 1479 1479 1478 1478 1478 1478 1477 1476 1475 1474 1472
1442 1443 1444 1444 1446 1447 1448 1450 1452 1454 1455 1456 1458 1459 1460 1461 1463 1464 1465 1467 1468 1469 1470 1471 1472 1472 1473 1474 1474 1474 1474 1475 1475 1475 1475 1474 1474 1474 1473 1472 1470 1469 1467
1440 1441 1442 1443 1444 1445 1446 1447 1449 1451 1452 1454 1455 1456 1457 1459 1460 1461 1462 1464 1464 1466 1467 1468 1469 1469 1470 1471 1471 1471 1470 1471 1471 1471 1470 1470 1469 1469 1468 1467 1465 1464 1462
1440 1440 1441 1442 1442 1443 1444 1446 1447 1449 1450 1451 1452 1454 1455 1456 1457 1458 1460 1461 1462 1463 1464 1465 1466 1466 1467 1467 1467 1467 1467 1467 1467 1466 1466 1465 1465 1464 1464 1463 1461 1460 1457
1439 1439 1440 1440 1441 1441 1443 1444 1445 1446 1448 1449 1450 1451 1452 1454 1455 1456 1457 1458 1459 1460 1461 1461 1462 1463 1463 1464 1464 1464 1464 1463 1463 1462 1462 1461 1460 1460 1459 1458 1457 1455 1454
1438 1438 1438 1439 1439 1440 1441 1442 1444 1445 1446 1447 1448 1449 1450 1451 1453 1453 1455 1456 1457 1457 1458 1458 1459 1460 1460 1460 1460 1460 1460 1460 1459 1458 1458 1457 1456 1455 1455 1454 1452 1451 1449
1437 1437 1438 1438 1439 1440 1440 1441 1442 1443 1444 1445 1446 1447 1448 1449 1450 1451 1452 1453 1454 1454 1455 1455 1456 1456 1456 1456 1456 1456 1456 1456 1455 1455 1454 1453 1453 1452 1450 1449 1448 1446 1445
1436 1437 1437 1437 1438 1439 1440 1441 1441 1442 1442 1443 1444 1445 1446 1447 1447 1448 1449 1450 1450 1451 1452 1452 1452 1453 1453 1453 1453 1453 1452 1452 1452 1451 1450 1449 1449 1448 1446 1445 1444 1442 1440
1436 1436 1437 1437 1438 1439 1439 1440 1440 1441 1441 1442 1443 1443 1444 1444 1445 1445 1446 1447 1447 1448 1448 1448 1449 1449 1449 1449 1449 1449 1449 1449 1448 1447 1447 1446 1445 1444 1443 1441 1440 1439 1437
1436 1437 1437 1437 1437 1438 1438 1438 1439 1439 1440 1440 1440 1441 1441 1442 1442 1443 1443 1444 1444 1445 1445 1445 1445 1445 1445 1445 1445 1445 1445 1445 1444 1444 1443 1442 1441 1440 1439 1438 1437 1435 1434
1437 1436 1436 1436 1437 1437 1437 1437 1437 1438 1438 1438 1438 1438 1438 1439 1439 1440 1440 1441 1441 1442 1442 1442 1442 1442 1442 1442 1442 1442 1442 1442 1441 1441 1440 1439 1438 1437 1436 1435 1433 1432 1430
1436 1436 1436 1435 1435 1435 1436 1436 1436 1435 1435 1435 1436 1436 1436 1436 1436 1437 1437 1437 1438 1438 1438 1438 1438 1438 1438 1438 1438 1438 1438 1438 1437 1437 1436 1436 1435 1434 1433 1432 1430 1429 1427
1435 1435 1434 1434 1434 1434 1434 1434 1434 1433 1433 1433 1433 1433 1433 1434 1434 1434 1434 1434 1434 1434 1435 1435 1435 1435 1435 1435 1435 1434 1434 1434 1434 1433 1433 1432 1431 1430 1429 1428 1427 1426 1424
1433 1433 1433 1432 1432 1432 1432 1432 1431 1431 1431 1431 1431 1431 1431 1431 1431 1431 1431 1431 1431 1431 1432 1432 1432 1432 1431 1431 1431 1431 1430 1430 1430 1430 1429 1429 1428 1427 1426 1425 1424 1422 1421
1431 1431 1431 1430 1430 1430 1430 1430 1429 1429 1429 1429 1429 1429 1428 1428 1428 1428 1428 1428 1428 1428 1428 1428 1428 1428 1428 1428 1427 1427 1427 1427 1426 1426 1426 1425 1424 1423 1422 1421 1420 1419 1417
1429 1429 1428 1428 1428 1427 1427 1427 1427 1427 1427 1426 1426 1426 1426 1426 1425 1425 1425 1425 1425 1425 1425 1425 1425 1425 1424 1424 1424 1424 1423 1423 1423 1422 1422 1421 1420 1420 1418 1417 1416 1415 1413
1427 1427 1426 1426 1425 1425 1425 1425 1425 1424 1424 1424 1423 1423 1423 1423 1422 1422 1422 1422 1422 1422 1422 1422 1421 1421 1421 1421 1421 1420 1420 1419 1419 1419 1418 1417 1417 1416 1415 1413 1412 1411 1410
1425 1425 1424 1423 1423 1423 1422 1422 1422 1422 1421 1421 1421 1420 1420 1420 1419 1419 1419 1419 1419 1419 1418 1418 1418 1418 1418 1417 1417 1416 1416 1416 1415 1415 1414 1413 1412 1411 1410 1409 1408 1407 1406
1423 1422 1422 1421 1420 1420 1420 1419 1419 1419 1419 1418 1418 1417 1417 1417 1416 1416 1416 1416 1415 1415 1415 1415 1414 1414 1414 1413 1413 1412 1412 1411 1411 1410 1410 1409 1408 1407 1406 1405 1404 1403 1402
1422 1420 1419 1419 1418 1418 1417 1417 1416 1416 1415 1415 1415 1414 1414 1413 1413 1413 1413 1412 1412 1412 1411 1411 1411 1411 1410 1410 1409 1409 1408 1407 1407 1406 1405 1404 1403 1402 1402 1401 1400 1399 1398